FW1436 Weather Reports


Display with metric or nautical units.
time (UTC)temp
F
wind
direction
speed
MPH
gust
MPH
rain 1hr
in
rain 24hr
in
rain mn
in
humidity
%
barometer
mb
20260508184507 61 76 0.0 2.0 0.00 0.00 0.00 64 1008.0
20260508183007 62 77 0.0 2.0 0.00 0.00 0.00 62 1007.9
20260508181505 63 24 0.0 2.0 0.00 0.00 0.00 59 1007.9
20260508180004 63 4 0.0 3.0 0.00 0.00 0.00 59 1007.9
20260508174503 63 316 0.0 0.0 0.00 0.00 0.00 63 1008.0
20260508173059 61 289 0.0 3.0 0.00 0.00 0.00 63 1008.1
20260508171559 60 285 0.0 2.0 0.00 0.00 0.00 66 1008.1
20260508170100 61 289 1.0 5.0 0.00 0.00 0.00 65 1008.0
20260508164604 61 329 2.0 6.0 0.00 0.00 0.00 64 1008.1
20260508163059 61 327 1.0 5.0 0.00 0.00 0.00 65 1008.2
20260508161554 57 39 0.0 4.0 0.00 0.00 0.00 77 1008.3
20260508160054 56 329 0.0 4.0 0.00 0.00 0.00 83 1008.3
20260508154554 54 326 1.0 7.0 0.00 0.00 0.00 89 1008.4
20260508153051 52 309 2.0 13.0 0.00 0.00 0.00 90 1008.4
20260508151559 54 277 4.0 14.0 0.00 0.00 0.00 85 1009.1
20260508150059 58 263 3.0 8.0 0.00 0.00 0.00 76 1008.9
20260508144616 60 236 0.0 2.0 0.00 0.00 0.00 69 1008.6
20260508143053 61 224 0.0 7.0 0.00 0.00 0.00 68 1008.6
20260508141555 61 245 2.0 5.0 0.00 0.00 0.00 69 1008.9
20260508140049 60 123 0.0 6.0 0.00 0.00 0.00 71 1008.8
20260508134546 60 71 0.0 3.0 0.00 0.00 0.00 74 1008.8
20260508133105 56 75 0.0 6.0 0.00 0.00 0.00 78 1009.2
20260508131535 56 49 1.0 7.0 0.00 0.00 0.00 82 1009.2
20260508130031 54 102 3.0 6.0 0.00 0.00 0.00 86 1009.7
20260508124533 53 80 0.0 4.0 0.00 0.00 0.00 93 1009.7
20260508123028 52 61 0.0 2.0 0.00 0.00 0.00 94 1009.9
20260508121534 51 109 0.0 3.0 0.00 0.00 0.00 93 1010.3
20260508120027 51 27 1.0 3.0 0.00 0.00 0.00 94 1010.3
20260508114525 50 84 1.0 4.0 0.00 0.00 0.00 94 1010.3
20260508113024 50 89 0.0 2.0 0.00 0.00 0.00 94 1010.5
20260508111524 50 79 0.0 3.0 0.00 0.00 0.00 93 1010.5
20260508110042 50 89 0.0 2.0 0.00 0.00 0.00 93 1010.7
20260508104521 50 56 0.0 0.0 0.00 0.00 0.00 92 1010.6
20260508103021 51 54 0.0 1.0 0.00 0.00 0.00 91 1010.9
20260508101521 52 290 0.0 1.0 0.00 0.00 0.00 85 1010.9
20260508100021 52 138 0.0 4.0 0.00 0.00 0.00 81 1010.4
20260508094518 52 83 0.0 3.0 0.00 0.00 0.00 80 1010.4
20260508093017 52 124 0.0 2.0 0.00 0.00 0.00 79 1010.4
20260508091516 53 135 0.0 2.0 0.00 0.00 0.00 78 1010.7
20260508090024 53 205 0.0 4.0 0.00 0.00 0.00 78 1010.8
20260508084515 53 64 3.0 7.0 0.00 0.00 0.00 78 1010.1
20260508083012 52 142 3.0 6.0 0.00 0.00 0.00 79 1010.0
20260508081510 52 101 2.0 5.0 0.00 0.00 0.00 80 1010.2
20260508080011 51 94 1.0 4.0 0.00 0.00 0.00 82 1010.0
20260508074515 50 83 2.0 4.0 0.00 0.00 0.00 83 1010.3
20260508073107 50 103 0.0 4.0 0.00 0.00 0.00 86 1010.2
20260508071605 49 110 1.0 4.0 0.00 0.00 0.00 86 1009.9
20260508070058 49 131 0.0 4.0 0.00 0.00 0.00 86 1009.9
20260508064557 49 121 0.0 3.0 0.00 0.00 0.00 86 1009.7
20260508063054 49 96 1.0 6.0 0.00 0.00 0.00 86 1009.6
20260508061553 48 153 0.0 3.0 0.00 0.00 0.00 87 1009.8
20260508060051 48 65 2.0 5.0 0.00 0.00 0.00 87 1009.4
20260508054552 48 72 0.0 3.0 0.00 0.00 0.00 87 1009.7
20260508053113 48 61 0.0 0.0 0.00 0.00 0.00 87 1009.8
20260508051549 48 96 1.0 3.0 0.00 0.00 0.00 87 1009.8
20260508050048 48 85 0.0 2.0 0.00 0.00 0.00 87 1009.7
20260508044551 48 94 0.0 2.0 0.00 0.00 0.00 87 1009.5
20260508043047 48 122 0.0 2.0 0.00 0.00 0.00 87 1009.3
20260508041611 47 96 0.0 0.0 0.00 0.00 0.00 88 1009.1
20260508040105 47 96 0.0 0.0 0.00 0.00 0.00 87 1009.1
20260508034548 48 96 0.0 0.0 0.00 0.00 0.00 87 1009.0
20260508033045 47 95 0.0 0.0 0.00 0.00 0.00 88 1009.1
20260508031544 47 95 0.0 0.0 0.00 0.00 0.00 88 1009.1
20260508030044 46 95 0.0 0.0 0.00 0.00 0.00 88 1009.2
20260508024546 47 95 0.0 1.0 0.00 0.00 0.00 88 1009.1
20260508023041 47 48 0.0 1.0 0.00 0.00 0.00 88 1008.9
20260508021542 47 56 0.0 1.0 0.00 0.00 0.00 88 1009.1
20260508020045 47 53 0.0 1.0 0.00 0.00 0.00 88 1009.3
20260508014536 47 79 0.0 0.0 0.00 0.00 0.00 88 1009.8
20260508013034 46 79 0.0 0.0 0.00 0.00 0.00 88 1009.9
20260508011536 47 79 0.0 3.0 0.00 0.00 0.00 87 1009.7
20260508004532 47 119 0.0 5.0 0.00 0.00 0.00 87 1010.1
20260508003033 47 124 0.0 1.0 0.00 0.00 0.00 87 1010.3
20260508001526 47 112 0.0 0.0 0.00 0.00 0.00 86 1010.4
20260508000025 47 89 0.0 1.0 0.00 0.00 0.00 87 1010.3
20260507234522 48 91 0.0 1.0 0.00 0.00 0.00 86 1010.4
20260507233032 48 97 0.0 0.0 0.00 0.00 0.00 85 1010.8
20260507231519 48 63 0.0 0.0 0.00 0.00 0.00 85 1010.9
20260507230018 48 63 0.0 0.0 0.00 0.00 0.00 84 1010.9
20260507224521 48 63 0.0 1.0 0.00 0.00 0.00 85 1010.9
20260507223017 48 63 0.0 0.0 0.00 0.00 0.00 85 1010.9
20260507221520 48 63 0.0 0.0 0.00 0.00 0.00 85 1010.8
20260507220014 48 63 0.0 0.0 0.00 0.00 0.00 84 1010.8
20260507214513 49 63 0.0 1.0 0.00 0.00 0.00 83 1010.6
20260507213016 49 359 0.0 1.0 0.00 0.00 0.00 83 1010.5
20260507211510 49 103 0.0 1.0 0.00 0.00 0.00 86 1010.5
20260507210008 50 103 0.0 0.0 0.00 0.00 0.00 85 1010.3
20260507204505 51 103 0.0 0.0 0.00 0.00 0.00 83 1010.0
20260507203004 51 103 0.0 0.0 0.00 0.00 0.00 81 1009.7
20260507201504 52 102 0.0 0.0 0.00 0.00 0.00 81 1009.4
20260507200059 53 103 0.0 1.0 0.00 0.00 0.00 80 1009.2
20260507200006 53 103 0.0 1.0 0.00 0.00 0.00 79 1009.3
20260507194620 53 103 0.0 2.0 0.00 0.00 0.00 78 1008.8
20260507193058 54 91 0.0 2.0 0.00 0.00 0.00 77 1008.7
20260507191558 55 110 0.0 2.0 0.00 0.00 0.00 77 1008.5
20260507190058 56 91 0.0 1.0 0.00 0.00 0.00 73 1008.3